Location: Limerick
(52.6650°N, 8.6230°W)
Time: 04:48:27
(UTC+00:00)

ISS - Pass Details

Date: 24 February 2020
Orbit: 415 x 423 km, 51.6° (Epoch: 27 February)

Event Time Altitude Azimuth Distance (km) Brightness Sun altitude
Exits shadow 05:42:43 - 185° (S) 1,828 -0.6 -17.5°
Reaches altitude 10° 05:44:03 10° 169° (SSE) 1,498 -0.9 -17.3°
Maximum altitude 05:45:40 13° 140° (SE) 1,335 -0.8 -17.1°
Drops below altitude 10° 05:47:17 10° 111° (ESE) 1,505 0.0 -16.8°
Sets 05:50:16 0° 83° (E) 2,376 1.9 -16.4°
